Hourly Weather Aljustrel

Today, 26 November, Thursday

Time Temperature Precipitation Wind Pressure Humidity
00:00 +10°C° 0 mm 3 mps 740 mmHg 85%
01:00 +10°C° 0 mm 3 mps 740 mmHg 85%
02:00 +9°C° 0 mm 2 mps 739 mmHg 85%
03:00 +9°C° 0 mm 2 mps 739 mmHg 85%
04:00 +9°C° 0 mm 2 mps 738 mmHg 86%
05:00 +9°C° 0 mm 2 mps 738 mmHg 86%
06:00 +10°C° 0 mm 3 mps 738 mmHg 84%
07:00 +10°C° 0 mm 3 mps 739 mmHg 82%
08:00 +11°C° 0 mm 4 mps 739 mmHg 79%
09:00 +12°C° 0.1 mm 4 mps 739 mmHg 74%
10:00 +13°C° 0.1 mm 4 mps 739 mmHg 69%
11:00 +14°C° 0.1 mm 4 mps 739 mmHg 64%
12:00 +14°C° 0.2 mm 5 mps 739 mmHg 64%
13:00 +15°C° 0.2 mm 5 mps 739 mmHg 64%
14:00 +15°C° 0.2 mm 5 mps 738 mmHg 64%
15:00 +13°C° 0.1 mm 5 mps 739 mmHg 71%
16:00 +12°C° 0.1 mm 4 mps 739 mmHg 77%
17:00 +11°C° 0.1 mm 4 mps 739 mmHg 83%
18:00 +11°C° 0.1 mm 3 mps 739 mmHg 84%
19:00 +11°C° 0.1 mm 3 mps 740 mmHg 85%
20:00 +10°C° 0.1 mm 3 mps 740 mmHg 86%
21:00 +10°C° 0 mm 3 mps 740 mmHg 87%
22:00 +10°C° 0 mm 4 mps 740 mmHg 88%
23:00 +10°C° 0 mm 4 mps 741 mmHg 88%

Tomorrow, 27 November, Friday

Time Temperature Precipitation Wind Pressure Humidity
00:00 +8°C° 0 mm 4 mps 740 mmHg 89%
01:00 +9°C° 0 mm 3 mps 740 mmHg 90%
02:00 +8°C° 0 mm 3 mps 740 mmHg 91%
03:00 +8°C° 0 mm 3 mps 740 mmHg 91%
04:00 +8°C° 0 mm 2 mps 740 mmHg 90%
05:00 +8°C° 0 mm 2 mps 740 mmHg 89%
06:00 +9°C° 0 mm 2 mps 740 mmHg 87%
07:00 +9°C° 0 mm 2 mps 740 mmHg 84%
08:00 +10°C° 0 mm 2 mps 740 mmHg 81%
09:00 +12°C° 0 mm 2 mps 740 mmHg 75%
10:00 +13°C° 0 mm 2 mps 740 mmHg 70%
11:00 +15°C° 0 mm 2 mps 740 mmHg 64%
12:00 +14°C° 0 mm 2 mps 740 mmHg 68%
13:00 +13°C° 0 mm 3 mps 740 mmHg 71%
14:00 +13°C° 0 mm 4 mps 740 mmHg 74%
15:00 +12°C° 0.1 mm 3 mps 740 mmHg 78%
16:00 +12°C° 0.1 mm 3 mps 740 mmHg 82%
17:00 +11°C° 0.1 mm 3 mps 740 mmHg 86%
18:00 +11°C° 0 mm 3 mps 740 mmHg 88%
19:00 +10°C° 0 mm 2 mps 740 mmHg 90%
20:00 +10°C° 0 mm 2 mps 741 mmHg 92%
21:00 +9°C° 0 mm 2 mps 741 mmHg 93%
22:00 +9°C° 0 mm 2 mps 741 mmHg 93%
23:00 +10°C° 0 mm 1 mps 741 mmHg 94%

Day after tomorrow, 28 November, Saturday

Time Temperature Precipitation Wind Pressure Humidity
00:00 +10°C° 0 mm 1 mps 740 mmHg 94%
01:00 +9°C° 0 mm 1 mps 740 mmHg 94%
02:00 +9°C° 0 mm 1 mps 740 mmHg 95%
03:00 +9°C° 0 mm 1 mps 740 mmHg 95%
04:00 +8°C° 0 mm 0 mps 740 mmHg 95%
05:00 +8°C° 0 mm 0 mps 740 mmHg 95%
06:00 +9°C° 0 mm 0 mps 741 mmHg 92%
07:00 +10°C° 0 mm 1 mps 741 mmHg 90%
08:00 +11°C° 0 mm 1 mps 741 mmHg 88%
09:00 +13°C° 0 mm 1 mps 741 mmHg 80%
10:00 +15°C° 0 mm 2 mps 741 mmHg 73%
11:00 +16°C° 0 mm 2 mps 741 mmHg 65%
12:00 +17°C° 0 mm 3 mps 740 mmHg 65%
13:00 +17°C° 0 mm 3 mps 740 mmHg 64%
14:00 +17°C° 0 mm 4 mps 739 mmHg 64%
15:00 +15°C° 0.3 mm 4 mps 739 mmHg 71%
16:00 +14°C° 0.3 mm 4 mps 740 mmHg 77%
17:00 +13°C° 0.3 mm 4 mps 740 mmHg 84%
18:00 +13°C° 1.3 mm 3 mps 740 mmHg 86%
19:00 +13°C° 1.3 mm 2 mps 740 mmHg 87%
20:00 +13°C° 1.3 mm 1 mps 740 mmHg 89%
21:00 +13°C° 0 mm 1 mps 740 mmHg 90%
22:00 +12°C° 0 mm 1 mps 740 mmHg 90%
23:00 +12°C° 0 mm 1 mps 740 mmHg 90%

29 November, Sunday

Time Temperature Precipitation Wind Pressure Humidity
00:00 +12°C° 0 mm 1 mps 740 mmHg 90%
01:00 +10°C° 0 mm 2 mps 740 mmHg 89%
02:00 +10°C° 0 mm 2 mps 740 mmHg 89%
03:00 +10°C° 0 mm 2 mps 740 mmHg 89%
04:00 +10°C° 0 mm 2 mps 740 mmHg 89%
05:00 +10°C° 0 mm 2 mps 740 mmHg 89%
06:00 +10°C° 0.4 mm 3 mps 741 mmHg 88%
07:00 +11°C° 0.4 mm 3 mps 741 mmHg 86%
08:00 +12°C° 0.4 mm 3 mps 742 mmHg 85%
09:00 +13°C° 0.3 mm 4 mps 742 mmHg 78%
10:00 +14°C° 0.3 mm 4 mps 742 mmHg 71%
11:00 +16°C° 0.3 mm 5 mps 742 mmHg 63%
12:00 +15°C° 0.7 mm 5 mps 742 mmHg 66%
13:00 +15°C° 0.7 mm 5 mps 742 mmHg 69%
14:00 +15°C° 0.7 mm 5 mps 741 mmHg 72%
15:00 +14°C° 0.6 mm 4 mps 742 mmHg 77%
16:00 +13°C° 0.6 mm 3 mps 742 mmHg 82%
17:00 +12°C° 0.6 mm 3 mps 742 mmHg 87%
18:00 +11°C° 0.1 mm 3 mps 743 mmHg 88%
19:00 +11°C° 0.1 mm 3 mps 743 mmHg 90%
20:00 +11°C° 0.1 mm 3 mps 743 mmHg 91%
21:00 +11°C° 0 mm 4 mps 743 mmHg 92%
22:00 +11°C° 0 mm 4 mps 744 mmHg 93%
23:00 +11°C° 0 mm 4 mps 744 mmHg 94%

30 November, Monday

Time Temperature Precipitation Wind Pressure Humidity
00:00 +10°C° 0 mm 5 mps 744 mmHg 93%
01:00 +10°C° 0 mm 5 mps 744 mmHg 93%
02:00 +10°C° 0 mm 6 mps 744 mmHg 93%
03:00 +10°C° 0 mm 5 mps 744 mmHg 92%
04:00 +10°C° 0 mm 5 mps 744 mmHg 92%
05:00 +10°C° 0 mm 5 mps 744 mmHg 92%
06:00 +12°C° 0 mm 5 mps 745 mmHg 90%
07:00 +11°C° 0 mm 6 mps 745 mmHg 88%
08:00 +11°C° 0 mm 6 mps 745 mmHg 86%
09:00 +14°C° 0 mm 6 mps 746 mmHg 81%
10:00 +15°C° 0 mm 7 mps 746 mmHg 77%
11:00 +16°C° 0 mm 7 mps 746 mmHg 72%
12:00 +16°C° 0.1 mm 6 mps 746 mmHg 71%
13:00 +17°C° 0.1 mm 6 mps 746 mmHg 69%
14:00 +17°C° 0.1 mm 5 mps 746 mmHg 68%
15:00 +16°C° 0 mm 5 mps 746 mmHg 73%
16:00 +15°C° 0 mm 4 mps 746 mmHg 77%
17:00 +13°C° 0 mm 3 mps 746 mmHg 81%
18:00 +13°C° 0 mm 3 mps 747 mmHg 83%
19:00 +13°C° 0 mm 3 mps 747 mmHg 84%
20:00 +12°C° 0 mm 3 mps 747 mmHg 85%
21:00 +12°C° 0 mm 3 mps 748 mmHg 86%
22:00 +12°C° 0 mm 3 mps 748 mmHg 86%
23:00 +12°C° 0 mm 3 mps 748 mmHg 87%

1 December, Tuesday

Time Temperature Precipitation Wind Pressure Humidity
00:00 +12°C° 0 mm 3 mps 748 mmHg 86%
01:00 +12°C° 0 mm 3 mps 748 mmHg 85%
02:00 +13°C° 0 mm 3 mps 748 mmHg 84%
03:00 +13°C° 0.4 mm 3 mps 748 mmHg 84%
04:00 +13°C° 0.4 mm 4 mps 748 mmHg 84%
05:00 +13°C° 0.4 mm 5 mps 748 mmHg 84%
06:00 +13°C° 0.1 mm 5 mps 748 mmHg 82%
07:00 +13°C° 0.1 mm 4 mps 748 mmHg 79%
08:00 +13°C° 0.1 mm 4 mps 749 mmHg 77%
09:00 +14°C° 0 mm 4 mps 749 mmHg 73%
10:00 +15°C° 0 mm 4 mps 749 mmHg 69%
11:00 +17°C° 0 mm 4 mps 749 mmHg 65%
12:00 +18°C° 0 mm 4 mps 749 mmHg 65%
13:00 +18°C° 0 mm 3 mps 748 mmHg 65%
14:00 +18°C° 0 mm 3 mps 748 mmHg 65%
15:00 +17°C° 0 mm 3 mps 748 mmHg 69%
16:00 +16°C° 0 mm 2 mps 748 mmHg 72%
17:00 +15°C° 0 mm 2 mps 748 mmHg 76%
18:00 +15°C° 0 mm 2 mps 749 mmHg 77%
19:00 +14°C° 0 mm 2 mps 749 mmHg 79%
20:00 +14°C° 0 mm 2 mps 749 mmHg 81%
21:00 +13°C° 0 mm 2 mps 749 mmHg 82%
22:00 +13°C° 0 mm 2 mps 749 mmHg 83%
23:00 +13°C° 0 mm 2 mps 749 mmHg 83%
Show more